Location: Carabito
(9.8355°N, 67.9249°W)
Time: 21:53:17
(UTC+00:00)

Cosmos-2242 - Pass Details

Date: 23 May 2024
Orbit: 580 x 603 km, 82.5° (Epoch: 23 June)

Event Time Altitude Azimuth Distance (km) Brightness Sun altitude
Rises 00:18:48 0° 200° (SSW) 2,789 6.3 -21.5°
Reaches altitude 10° 00:21:07 10° 208° (SSW) 1,890 5.6 -22.0°
Maximum altitude 00:24:57 35° 275° (W) 938 4.5 -22.9°
Drops below altitude 10° 00:28:47 10° 342° (NNW) 1,895 6.1 -23.7°
Sets 00:31:07 0° 351° (N) 2,797 6.9 -24.2°
